{"data":{"norad_id":62960,"intl_designator":"2025-029N","name":"STARLINK-32877","alt_names":[],"object_type":"PAYLOAD","status":"ACTIVE","operator":null,"country":"US","launch_date":"2025-02-11","launch_site_code":"AFWTR","launch_vehicle":null,"mission":null,"orbit_class":"UNKNOWN","rcs_meters":null,"size_class":null,"mass_kg":null,"dimensions":null,"purposes":["comms"],"wikipedia_slug":null,"has_3d_model":false,"image_url":null,"decayed_at":null,"tle_current":{"epoch":"2026-09-21T20:47:40.332192Z","epoch_age_seconds":47544,"freshness":"FRESH","line1":"1 62960U 25029N   26264.86643903  .00013665  00000+0  41489-3 0  9999","line2":"2 62960  53.1597  39.0686 0000791  57.2076 302.9003 15.34395597 91368","mean_motion":15.34395597,"eccentricity":7.91e-5,"inclination_deg":53.1597,"raan_deg":39.0686,"arg_perigee_deg":57.2076,"mean_anomaly_deg":302.9003,"bstar":0.00041489,"rev_number":9136,"period_min":93.848027380647,"perigee_km":462.17521538413,"apogee_km":463.25743838044,"semimajor_km":6840.8533268823,"source":"CELESTRAK","updated_at":"2026-09-22T09:00:49.713620Z"}}}